Location: Clinton NY
(43.0598°N, 75.3602°W)
Time: 15:14:16
(UTC-04:00)

Daily predictions for brighter satellites

Satellite Brightness Start Highest point End
(mag) Time Altitude Azimuth Time Altitude Azimuth Time Altitude Azimuth
Cosmos 1943 4.3 21:15:17 10° N 21:20:15 30° NE 21:25:13 10° ESE
Cosmos 1340 Rocket 3.9 21:18:02 10° SSW 21:21:58 50° WNW 21:25:57 10° N
Milstar 3 Cent rocket 4.5 21:17:36 10° SW 21:22:42 22° S 21:30:39 10° SE
SL-16 R/B 3.0 21:18:23 10° NW 21:23:50 50° WSW 21:29:16 10° S
Cosmos 371 Rocket 4.1 21:19:32 10° N 21:24:00 37° ENE 21:28:28 10° SE
Cosmos 2228 Rocket 4.3 21:21:43 10° NNE 21:25:40 27° ENE 21:29:32 10° SE
Resurs 01 Rocket 3.9 21:23:11 10° SSW 21:26:42 23° W 21:30:14 10° NW
Cosmos 1459 Rocket 4.0 21:20:46 10° N 21:27:05 75° E 21:33:15 10° SSE
Cosmos 1908 3.2 21:23:31 10° N 21:27:25 88° W 21:31:16 10° S
Cosmos 1939 Rocket 3.6 21:24:50 10° S 21:28:46 54° W 21:32:48 10° NNW
KORONAS-FOTON 3.7 21:31:19 10° S 21:35:04 67° E 21:38:51 10° NNE
CZ-3B R/B 4.0 21:33:28 10° SSW 21:36:27 63° SE 21:46:22 10° NE
Cosmos 2100 Rocket 4.2 21:32:20 10° N 21:38:41 84° W 21:45:03 10° S
H-2A R/B 3.0 21:36:46 10° SE 21:41:32 35° ENE 21:46:26 10° N
ERBS 2.4 21:38:54 10° NW 21:42:17 71° NE 21:45:11 13° SE
Cosmos 1076 Rocket 3.9 21:38:56 10° SSW 21:43:17 70° W 21:47:38 10° N
GPS 2-05 Rocket1 4.3 21:41:51 10° SSW 21:43:55 17° S 21:45:06 14° SE
Cosmos 2173 Rocket 4.1 21:39:03 10° N 21:45:14 82° W 21:51:29 10° S
Lacrosse 5 2.0 21:42:23 10° NW 21:47:26 71° SW 21:51:53 13° SE
Cosmos 2123 Rocket 4.2 21:42:57 10° SSE 21:48:55 55° E 21:54:58 10° NNE
SPOT 5 3.3 21:44:58 11° SSE 21:49:30 54° ENE 21:54:32 10° N
Meteor 2-10 4.5 21:44:49 10° N 21:50:22 56° ENE 21:55:30 12° SSE
SL-08 RB Rocket 4.2 21:47:43 12° SE 21:51:41 48° ENE 21:56:08 10° N
Cosmos 2061 Rocket 4.2 21:45:37 10° N 21:52:01 80° W 21:58:26 10° S
NOAA 11 4.2 21:47:55 10° SSE 21:53:20 88° WSW 21:58:49 10° NNW
Cosmos 2151 4.1 21:51:17 14° SE 21:54:11 27° E 21:57:50 10° NNE
Abrixas rocket 2.1 21:51:42 10° WNW 21:54:57 78° SSW 21:57:18 17° ESE
Cosmos 1408 Rocket 3.6 21:51:34 10° S 21:55:52 82° W 22:00:13 10° N
YAOGAN 6 4.1 21:53:41 10° SSW 21:57:03 35° W 22:00:29 10° NNW
MetOp-B 4.2 21:53:21 10° SSE 21:58:42 89° ENE 22:04:06 10° NNW
Cosmos 2221 4.3 21:54:52 10° NNW 21:58:44 31° W 22:02:35 10° SSW
BREEZE-M DEB (TANK) 3.6 21:59:02 10° WNW 22:01:06 32° N 22:05:34 10° ENE
Cosmos 1626 3.5 22:03:26 18° SE 22:05:01 23° E 22:08:00 10° NE
Cosmos 1356 4.3 22:05:04 19° SE 22:06:56 33° E 22:10:07 10° NNE
Cosmos 1814 Rocket 4.1 22:01:48 10° NNW 22:07:11 88° WSW 22:11:34 15° SSE
Cosmos 1726 2.3 22:03:56 10° NNW 22:07:36 71° W 22:10:47 13° S
Cosmos 1725 Rocket 4.0 22:04:18 10° N 22:10:36 81° E 22:16:09 13° S
Cosmos 1763 Rocket 3.4 22:07:33 10° NNW 22:12:41 82° ENE 22:16:28 18° SSE
Cosmos 841 Rocket 3.6 22:07:39 10° NNW 22:12:53 65° ENE 22:16:36 19° SSE
Terra 2.9 22:11:39 17° ESE 22:14:37 32° ENE 22:18:50 10° N
Cosmos 332 Rocket 4.2 22:10:44 10° NNW 22:15:34 60° WSW 22:19:41 14° S
Cosmos 1500 Rocket 3.7 22:13:37 15° S 22:17:12 60° E 22:21:36 10° NNE
Tiangong 1 0.8 22:14:40 10° W 22:17:26 58° SSW 22:18:28 32° SE
Cosmos 2263 Rocket 2.3 22:12:31 10° S 22:17:55 56° ESE 22:23:23 10° NNE
Cosmos 1486 Rocket 4.0 22:12:58 10° SSW 22:18:13 76° ESE 22:23:33 10° NNE
ATLAS 5 CENTAUR R/B 4.4 22:14:46 10° W 22:18:43 25° NW 22:22:59 10° NNE
Cosmos 304 Rocket 4.5 22:16:02 10° N 22:20:35 40° ENE 22:23:24 20° ESE
Abrixas 2.0 22:19:46 10° SW 22:22:27 69° SSE 22:25:10 10° ENE
Cosmos 1300 3.1 22:19:36 10° NNW 22:23:23 60° W 22:26:17 16° S
Meteor 1-27 4.3 22:21:20 10° N 22:27:09 70° ENE 22:31:05 21° SSE
DMSP B5D2-2 4.3 22:22:57 10° NNE 22:28:03 51° E 22:31:32 20° S
IGS 5A 4.3 22:26:24 23° ESE 22:28:27 37° ENE 22:32:18 10° N
CARTOSAT-1 4.2 22:26:14 23° SE 22:28:29 41° ENE 22:32:32 10° N
USA 234 3.2 22:27:02 10° NE 22:33:31 61° SE 22:39:57 10° SW
Cosmos 1328 Rocket 4.3 22:32:33 10° NNW 22:36:44 48° W 22:40:05 15° SSW
SPOT 1/Viking Rocket 3.6 22:33:04 19° S 22:36:45 77° WSW 22:41:56 10° NNW
Cosmos 1151 Rocket 3.0 22:32:33 10° N 22:36:58 89° W 22:39:31 25° S
SL-14 R/B 4.4 22:36:39 10° SSW 22:40:26 43° WNW 22:44:13 10° N
Cosmos 1515 Rocket 4.1 22:40:55 10° NNW 22:45:10 54° W 22:48:00 20° SSW
CZ-4C R/B 2.9 22:46:15 27° SE 22:47:30 30° ESE 22:52:26 10° NE
H-2A R/B 2.4 22:47:34 31° SE 22:49:19 51° ENE 22:53:25 10° N
EO 1 Delta rocket 4.5 22:47:12 17° SSW 22:50:35 50° W 22:55:10 10° NNW
Cosmos 1844 Rocket 3.9 22:50:06 22° ESE 22:50:56 22° E 22:55:08 10° NE
ARGOS 4.2 22:46:39 12° SSW 22:51:12 40° W 22:56:17 10° NNW
Cosmos 2058 3.1 22:50:47 21° SSW 22:53:30 74° W 22:57:44 10° N
Cosmos 1455 2.2 22:52:20 10° N 22:56:12 68° E 22:57:20 42° SSE
Meteor 2-12 Rocket 4.5 22:53:47 10° N 22:59:52 80° W 23:03:35 25° S
Cosmos 2233 Rocket 4.2 22:53:49 10° NNW 22:59:59 68° W 23:04:08 21° S
Cosmos 1943 4.0 22:59:07 10° NW 23:04:26 43° WSW 23:07:41 22° SSW
Cosmos 1503 Rocket 4.0 23:00:28 15° SSW 23:04:46 81° WNW 23:09:58 10° NNE
Cosmos 540 Rocket 3.4 23:01:05 10° NNW 23:06:16 89° WSW 23:08:29 35° SSE
CZ-4B R/B 3.9 23:02:58 10° NNE 23:08:04 46° E 23:09:44 35° SSE
SME Rocket 3.7 23:11:22 34° ESE 23:12:37 45° ENE 23:17:18 10° N
Cosmos 968 Rocket 4.0 23:12:33 35° SE 23:13:49 41° ESE 23:18:44 10° NE
H-2A R/B 3.4 23:17:23 16° SSW 23:20:55 33° W 23:25:48 10° NNW
CZ-2C R/B 4.0 23:17:30 10° NE 23:21:31 22° E 23:22:08 21° ESE
Cosmos 2242 Rocket 4.5 23:18:37 10° N 23:22:53 37° ENE 23:23:57 33° ESE
Cosmos 1869 3.2 23:21:01 10° N 23:24:58 74° E 23:25:35 59° SE
Lacrosse 5 4.2 23:28:07 10° W 23:29:34 11° WSW 23:30:59 10° SW
Sich 1 2.9 23:28:52 54° SSE 23:29:43 73° E 23:34:00 10° NNE
Cosmos 1513 Rocket 4.4 23:31:27 10° N 23:37:40 90° ENE 23:40:12 38° S
Cosmos 1400 Rocket 3.5 23:38:32 41° E 23:38:35 41° E 23:42:29 10° NNE
Cosmos 1626 4.3 23:38:04 14° WSW 23:40:17 22° WNW 23:43:16 10° NNW
CZ-4C R/B 3.5 23:40:17 58° SSE 23:41:07 87° ENE 23:45:34 10° NNW
Cosmos 292 Rocket 4.0 23:36:41 10° NNW 23:41:24 57° ENE 23:42:36 43° ESE
Cosmos 1707 Rocket 4.0 23:42:50 10° NNW 23:47:14 57° W 23:48:18 44° SW
deb Chang Zheng 4 4.3 23:43:10 10° N 23:47:24 51° WNW 23:49:17 30° SW
Cosmos 2278 Rocket 3.2 23:51:08 28° ESE 23:51:26 28° ESE 23:56:12 10° NE
Terra 3.3 23:50:32 22° SW 23:52:21 28° W 23:56:27 10° NW
ALOS 2 3.5 23:52:39 33° E 23:53:27 36° ENE 23:57:29 10° N
Abrixas 4.3 23:54:57 10° WNW 23:57:24 29° N 23:57:27 29° N
